Language: 


Des rapports , des résumés tant et plus, au choix de chacun....


Données Historiques de Météogheer
Journalier Rapport pour Janvier 5, 2018 Unitée:  Impériale    Métrique   Les deux
Suivant Jour »
Journalier Hebdomadaire Mensuel Annuel Sur mesure
  Max: Min: Moyenne:
Température: 50 °F 42.4 °F 46.8 °F
Point de rosée: 48.2 °F 42.8 °F 45.3 °F
Humidité: 98% 82% 92%
Vent: 22.4mph 0mph 8.1mph
Rafales: 24.6mph - -
Vent- - SW
Pression: 29.6 in 29.4 in -
Pluie: 0.14 in    
Historical Graphs
 
 
Données tabulaires pour Janvier 5, 2018
Heure Température Point de rosée Pression Vent Vent Rafales Humidité Pluie Taux (Horaire) Conditions
00:01 47.3 °F 42.8 °F 29.4 in SW 5.6 mph 11 mph 83% 0 in
00:06 47.3 °F 42.8 °F 29.4 in WSW 11 mph 11 mph 83% 0 in
00:08 47.3 °F 42.8 °F 29.4 in WSW 5.6 mph 11 mph 84% 0 in
00:14 47.5 °F 44.6 °F 29.4 in SW 7.4 mph 11 mph 85% 0 in
00:19 47.5 °F 44.6 °F 29.4 in WSW 8.1 mph 10.5 mph 85% 0 in
00:27 47.7 °F 44.6 °F 29.4 in WSW 8.7 mph 11 mph 87% 0 in
00:30 47.7 °F 44.6 °F 29.4 in WSW 6.5 mph 11 mph 87% 0 in
00:35 47.7 °F 44.6 °F 29.4 in WSW 7.4 mph 12.8 mph 88% 0 in
00:37 47.8 °F 46.4 °F 29.4 in WSW 6.5 mph 12.8 mph 89% 0 in
00:42 47.8 °F 46.4 °F 29.4 in SSW 5.6 mph 10.3 mph 89% 0 in
00:45 47.8 °F 46.4 °F 29.4 in SW 7.6 mph 10.3 mph 89% 0 in
00:51 47.8 °F 46.4 °F 29.4 in WSW 7.4 mph 11 mph 89% 0 in
00:53 47.8 °F 46.4 °F 29.4 in SSW 9.6 mph 11 mph 89% 0 in
00:58 47.8 °F 46.4 °F 29.4 in WSW 6.7 mph 11 mph 89% 0 in
01:03 47.8 °F 46.4 °F 29.4 in WSW 6.3 mph 12.5 mph 89% 0 in
01:08 47.7 °F 44.6 °F 29.4 in WSW 10.3 mph 12.5 mph 90% 0 in
01:11 47.5 °F 44.6 °F 29.4 in SW 6 mph 12.5 mph 90% 0 in
01:16 47.3 °F 46.4 °F 29.4 in SSW 8.5 mph 12.3 mph 91% 0.01 in
01:21 47.1 °F 44.6 °F 29.4 in SSW 6.3 mph 12.3 mph 92% 0.01 in
01:24 46.9 °F 44.6 °F 29.4 in SSW 12.1 mph 12.3 mph 92% 0.02 in
01:29 46.8 °F 44.6 °F 29.4 in SSW 9.4 mph 12.3 mph 93% 0.03 in
01:34 46.6 °F 44.6 °F 29.4 in SW 4.3 mph 12.3 mph 94% 0.05 in
01:35 46.6 °F 44.6 °F 29.4 in WSW 7.2 mph 12.3 mph 94% 0.05 in
01:39 46.4 °F 44.6 °F 29.4 in SW 8.5 mph 10.3 mph 94% 0.06 in
01:44 46.2 °F 44.6 °F 29.4 in SSW 6 mph 8.5 mph 95% 0.07 in
01:47 46.2 °F 46.4 °F 29.4 in SSW 3.8 mph 8.5 mph 96% 0.07 in
01:52 46 °F 44.6 °F 29.4 in SW 5.4 mph 7.8 mph 96% 0.09 in
01:53 46 °F 44.6 °F 29.4 in SSW 8.5 mph 8.5 mph 96% 0.09 in
01:58 46 °F 44.6 °F 29.4 in WSW 5.6 mph 9.4 mph 97% 0.09 in
02:04 46 °F 44.6 °F 29.4 in SSW 8.5 mph 10.1 mph 97% 0.09 in
02:09 46 °F 46.4 °F 29.4 in WSW 10.3 mph 11.2 mph 98% 0.09 in
02:11 46.2 °F 46.4 °F 29.4 in SW 11.9 mph 12.1 mph 98% 0.09 in
02:16 46.2 °F 46.4 °F 29.4 in SW 8.5 mph 14.5 mph 98% 0.07 in
02:22 46.4 °F 46.4 °F 29.4 in SW 10.3 mph 14.5 mph 98% 0.06 in
02:26 46.6 °F 46.4 °F 29.4 in WSW 8.7 mph 12.8 mph 98% 0.06 in
02:30 46.6 °F 46.4 °F 29.4 in WSW 12.3 mph 12.8 mph 98% 0.05 in
02:35 46.9 °F 48.2 °F 29.4 in SW 13.2 mph 13.2 mph 98% 0.03 in
02:38 47.1 °F 48.2 °F 29.4 in SW 12.8 mph 17 mph 98% 0.03 in
02:43 47.3 °F 48.2 °F 29.4 in WSW 10.7 mph 17.2 mph 98% 0.01 in
02:44 47.3 °F 48.2 °F 29.4 in SW 12.8 mph 17.2 mph 98% 0.01 in
02:47 47.5 °F 48.2 °F 29.4 in WSW 16.1 mph 18.1 mph 98% 0.01 in
02:51 47.7 °F 48.2 °F 29.4 in WSW 13.2 mph 22.8 mph 98% 0.01 in
02:52 47.8 °F 48.2 °F 29.4 in WSW 19.7 mph 22.8 mph 98% 0.01 in
02:58 48 °F 48.2 °F 29.4 in West 19.7 mph 24.6 mph 98% 0.01 in
03:01 48.2 °F 48.2 °F 29.4 in WSW 15.2 mph 24.6 mph 98% 0.01 in
03:06 48.4 °F 48.2 °F 29.4 in West 22.4 mph 24.6 mph 98% 0.01 in
03:11 48.6 °F 48.2 °F 29.4 in WSW 12.8 mph 22.8 mph 98% 0.01 in
03:16 48.6 °F 48.2 °F 29.4 in WSW 16.1 mph 22.4 mph 97% 0.01 in
03:26 48.9 °F 48.2 °F 29.4 in West 11 mph 22.4 mph 96% 0.01 in
03:30 48.9 °F 48.2 °F 29.4 in West 13.2 mph 20.1 mph 96% 0.01 in
03:35 48.9 °F 48.2 °F 29.4 in WSW 10.7 mph 17.4 mph 96% 0.01 in
03:39 48.9 °F 48.2 °F 29.4 in West 12.5 mph 17.4 mph 96% 0.01 in
03:44 49.1 °F 48.2 °F 29.4 in WSW 11.9 mph 15.9 mph 96% 0.01 in
03:46 49.1 °F 48.2 °F 29.4 in WSW 9.8 mph 15.9 mph 96% 0.01 in
03:51 49.1 °F 48.2 °F 29.4 in WSW 15.4 mph 17 mph 96% 0 in
03:53 49.1 °F 48.2 °F 29.4 in WSW 15.9 mph 17 mph 96% 0 in
03:58 49.1 °F 48.2 °F 29.4 in WSW 12.1 mph 19.2 mph 95% 0 in
04:02 49.1 °F 48.2 °F 29.4 in WSW 13.2 mph 19.2 mph 95% 0 in
04:07 49.1 °F 48.2 °F 29.4 in West 16.6 mph 19.9 mph 94% 0 in
04:11 49.1 °F 48.2 °F 29.4 in WSW 11 mph 19.9 mph 93% 0 in
04:14 49.1 °F 48.2 °F 29.4 in WSW 11 mph 19.9 mph 93% 0 in
04:17 49.1 °F 48.2 °F 29.4 in WSW 13.2 mph 20.8 mph 91% 0 in
04:22 49.1 °F 46.4 °F 29.4 in WSW 14.1 mph 21.5 mph 89% 0 in
04:24 49.3 °F 46.4 °F 29.4 in West 11.4 mph 22.1 mph 87% 0 in
04:29 49.3 °F 46.4 °F 29.4 in West 17.2 mph 22.1 mph 85% 0 in
04:30 49.3 °F 46.4 °F 29.4 in West 10.5 mph 22.1 mph 85% 0 in
04:35 49.1 °F 44.6 °F 29.4 in West 10.3 mph 21.9 mph 84% 0 in
04:36 49.1 °F 44.6 °F 29.4 in West 16.3 mph 18.1 mph 84% 0 in
04:41 48.9 °F 44.6 °F 29.4 in WSW 12.8 mph 18.1 mph 82% 0 in
04:46 48.9 °F 44.6 °F 29.4 in West 15.7 mph 19.9 mph 82% 0 in
04:47 48.9 °F 44.6 °F 29.4 in West 7.6 mph 19.9 mph 82% 0 in
04:52 48.7 °F 44.6 °F 29.4 in West 15.2 mph 19.9 mph 82% 0 in
04:53 48.7 °F 44.6 °F 29.4 in West 8.5 mph 19.5 mph 82% 0 in
04:59 48.7 °F 44.6 °F 29.4 in WSW 8.1 mph 17.7 mph 82% 0 in
05:04 48.6 °F 44.6 °F 29.4 in West 12.8 mph 16.3 mph 83% 0 in
05:09 48.6 °F 44.6 °F 29.4 in West 12.5 mph 16.3 mph 83% 0 in
05:10 48.6 °F 44.6 °F 29.4 in WSW 6.9 mph 16.3 mph 83% 0 in
05:15 48.6 °F 44.6 °F 29.4 in West 12.3 mph 14.8 mph 84% 0 in
05:20 48.7 °F 44.6 °F 29.4 in SW 12.5 mph 14.8 mph 84% 0 in
05:23 48.7 °F 44.6 °F 29.4 in WNW 7.6 mph 14.8 mph 84% 0 in
05:28 48.6 °F 44.6 °F 29.4 in West 6.5 mph 12.8 mph 85% 0 in
05:33 48.6 °F 44.6 °F 29.4 in WSW 8.7 mph 12.1 mph 85% 0 in
05:36 48.4 °F 44.6 °F 29.4 in WSW 8.7 mph 10.1 mph 85% 0 in
05:41 48.4 °F 44.6 °F 29.4 in West 10.7 mph 10.7 mph 86% 0 in
05:46 48.4 °F 44.6 °F 29.4 in West 8.5 mph 12.3 mph 86% 0 in
05:47 48.4 °F 44.6 °F 29.4 in West 7.6 mph 12.3 mph 86% 0 in
05:53 48.4 °F 44.6 °F 29.4 in West 5.8 mph 12.3 mph 86% 0 in
05:55 48.2 °F 44.6 °F 29.4 in WSW 7.8 mph 10.1 mph 87% 0 in
06:00 48.2 °F 44.6 °F 29.4 in WSW 8.1 mph 12.3 mph 87% 0 in
06:02 48 °F 44.6 °F 29.4 in WSW 6.3 mph 12.3 mph 88% 0 in
06:03 48 °F 44.6 °F 29.4 in WSW 6.5 mph 12.3 mph 88% 0 in
06:08 48 °F 46.4 °F 29.4 in WSW 5.8 mph 12.3 mph 89% 0 in
06:14 47.8 °F 46.4 °F 29.4 in WSW 6.5 mph 9.6 mph 89% 0 in
06:16 47.8 °F 46.4 °F 29.4 in WSW 7.4 mph 9.6 mph 90% 0 in
06:21 47.8 °F 46.4 °F 29.4 in West 6.5 mph 9.4 mph 90% 0 in
06:27 47.8 °F 46.4 °F 29.4 in WSW 7.6 mph 8.5 mph 91% 0 in
06:31 47.8 °F 46.4 °F 29.4 in WSW 6.5 mph 8.5 mph 91% 0 in
06:36 47.8 °F 46.4 °F 29.4 in WSW 6.3 mph 8.5 mph 92% 0 in
06:39 47.8 °F 46.4 °F 29.4 in WSW 5.4 mph 8.5 mph 92% 0 in
06:44 47.7 °F 46.4 °F 29.4 in WSW 5.4 mph 10.3 mph 92% 0 in
06:49 47.7 °F 46.4 °F 29.4 in WSW 10.3 mph 13 mph 93% 0 in
06:54 47.7 °F 46.4 °F 29.4 in WSW 7.8 mph 15.2 mph 94% 0 in
06:59 47.5 °F 46.4 °F 29.4 in WSW 8.1 mph 15.2 mph 94% 0 in
07:03 47.5 °F 46.4 °F 29.4 in WSW 7.6 mph 11 mph 94% 0 in
07:08 47.3 °F 46.4 °F 29.4 in WSW 7.4 mph 11 mph 94% 0 in
07:10 47.3 °F 46.4 °F 29.4 in WSW 6.3 mph 11 mph 94% 0 in
07:15 47.1 °F 46.4 °F 29.4 in WSW 4.9 mph 9.4 mph 94% 0 in
07:18 46.9 °F 46.4 °F 29.4 in WSW 5.8 mph 8.7 mph 94% 0 in
07:19 46.9 °F 46.4 °F 29.4 in SSW 6 mph 7.8 mph 94% 0 in
07:24 46.9 °F 46.4 °F 29.4 in SW 4.7 mph 6.3 mph 94% 0 in
07:27 46.9 °F 46.4 °F 29.4 in SW 5.6 mph 6.3 mph 94% 0 in
07:32 46.9 °F 46.4 °F 29.4 in Calm   5.8 mph 94% 0 in
07:35 46.9 °F 46.4 °F 29.4 in SW 3.4 mph 5.6 mph 94% 0 in
07:40 46.8 °F 44.6 °F 29.4 in SW 5.8 mph 5.8 mph 94% 0 in
07:46 46.9 °F 46.4 °F 29.4 in SW 5.8 mph 6.5 mph 95% 0 in
07:51 46.9 °F 46.4 °F 29.4 in WSW 4.9 mph 6.5 mph 95% 0 in
07:56 46.6 °F 46.4 °F 29.4 in SW 4 mph 6.3 mph 95% 0 in
08:02 46.6 °F 46.4 °F 29.4 in SSW 4.9 mph 6.3 mph 95% 0 in
08:04 46.6 °F 46.4 °F 29.4 in Calm   6.3 mph 95% 0 in
08:09 46.6 °F 46.4 °F 29.4 in SSW 5.8 mph 6.3 mph 95% 0 in
08:14 46.6 °F 46.4 °F 29.4 in SW 5.8 mph 7.8 mph 95% 0 in
08:16 46.6 °F 46.4 °F 29.4 in SW 3.8 mph 7.8 mph 95% 0 in
08:23 46.6 °F 46.4 °F 29.4 in WSW 6.3 mph 7.8 mph 95% 0 in
08:24 46.6 °F 46.4 °F 29.4 in SW 5.4 mph 6.7 mph 95% 0 in
08:30 46.6 °F 46.4 °F 29.4 in SW 4.5 mph 8.1 mph 95% 0 in
08:35 46.8 °F 46.4 °F 29.4 in SW 5.4 mph 8.5 mph 95% 0 in
08:36 46.8 °F 46.4 °F 29.4 in SSW 4.3 mph 8.5 mph 95% 0 in
08:37 46.8 °F 46.4 °F 29.4 in SW 4.9 mph 8.5 mph 95% 0 in
08:42 46.8 °F 46.4 °F 29.4 in SW 6 mph 10.1 mph 96% 0 in
08:47 46.8 °F 46.4 °F 29.4 in WSW 6 mph 10.5 mph 96% 0 in
08:49 46.8 °F 46.4 °F 29.4 in SW 7.4 mph 10.5 mph 96% 0 in
08:54 46.9 °F 46.4 °F 29.4 in SSW 6 mph 10.5 mph 96% 0 in
08:59 46.9 °F 46.4 °F 29.4 in SSW 3.6 mph 8.1 mph 96% 0 in
09:05 46.9 °F 46.4 °F 29.4 in South 6.3 mph 7.4 mph 96% 0 in
09:10 46.9 °F 46.4 °F 29.4 in SW 7.4 mph 7.4 mph 97% 0 in
09:15 47.1 °F 46.4 °F 29.4 in SSW 5.8 mph 7.6 mph 97% 0 in
09:17 47.1 °F 46.4 °F 29.4 in WSW 6 mph 7.8 mph 97% 0 in
09:22 47.1 °F 46.4 °F 29.4 in SW 5.6 mph 10.1 mph 97% 0 in
09:28 47.1 °F 46.4 °F 29.4 in SSW 4.9 mph 10.1 mph 97% 0 in
09:34 47.3 °F 48.2 °F 29.4 in SW 8.7 mph 8.7 mph 97% 0 in
09:39 47.3 °F 48.2 °F 29.4 in WSW 8.5 mph 8.7 mph 96% 0 in
09:42 47.3 °F 48.2 °F 29.4 in SW 4.9 mph 9.4 mph 96% 0 in
09:47 47.3 °F 48.2 °F 29.4 in SSW 4.9 mph 9.4 mph 96% 0 in
09:52 47.3 °F 48.2 °F 29.4 in SSW 5.4 mph 8.5 mph 96% 0 in
09:54 47.3 °F 48.2 °F 29.4 in SSW 5.8 mph 8.5 mph 96% 0 in
09:59 47.3 °F 48.2 °F 29.4 in South 5.4 mph 7.2 mph 96% 0 in
10:02 47.3 °F 48.2 °F 29.4 in SSW 4.9 mph 8.1 mph 96% 0 in
10:07 47.5 °F 48.2 °F 29.4 in SSW 6.3 mph 8.1 mph 96% 0 in
10:09 47.5 °F 48.2 °F 29.4 in SW 4.5 mph 8.1 mph 96% 0 in
10:14 47.5 °F 48.2 °F 29.4 in South 3.6 mph 8.5 mph 96% 0 in
10:15 47.5 °F 48.2 °F 29.4 in SSW 4.3 mph 8.5 mph 96% 0 in
10:20 47.7 °F 48.2 °F 29.4 in SSW 4 mph 7.4 mph 96% 0 in
10:25 47.7 °F 48.2 °F 29.4 in SSW 1.1 mph 6 mph 96% 0 in
10:26 47.7 °F 48.2 °F 29.4 in SSW 3.8 mph 6 mph 96% 0 in
10:33 47.8 °F 48.2 °F 29.4 in SW 3.4 mph 8.5 mph 95% 0 in
10:38 47.8 °F 48.2 °F 29.4 in SSW 3.8 mph 8.5 mph 95% 0 in
10:39 47.8 °F 48.2 °F 29.4 in SSW 4.9 mph 8.5 mph 95% 0 in
10:44 47.8 °F 48.2 °F 29.4 in SW 2.9 mph 7.4 mph 95% 0 in
10:46 48 °F 48.2 °F 29.4 in SSW 4.9 mph 7.4 mph 95% 0 in
10:51 48 °F 48.2 °F 29.4 in SSW 4.7 mph 6.9 mph 95% 0 in
10:56 48 °F 48.2 °F 29.4 in WSW 6.3 mph 10.3 mph 95% 0 in
11:02 48.2 °F 46.4 °F 29.4 in SW 8.1 mph 10.5 mph 94% 0 in
11:07 48.2 °F 46.4 °F 29.4 in SW 6.5 mph 10.5 mph 94% 0 in
11:11 48.4 °F 46.4 °F 29.4 in SW 7.4 mph 10.3 mph 94% 0 in
11:16 48.4 °F 46.4 °F 29.4 in SSW 10.7 mph 10.7 mph 94% 0 in
11:20 48.6 °F 48.2 °F 29.4 in SW 7.2 mph 10.7 mph 93% 0 in
11:29 48.7 °F 48.2 °F 29.4 in SSW 5.6 mph 12.3 mph 93% 0 in
11:38 48.7 °F 46.4 °F 29.4 in SW 5.8 mph 8.5 mph 92% 0 in
11:43 48.9 °F 46.4 °F 29.4 in SSW 8.5 mph 9.8 mph 92% 0 in
11:45 48.9 °F 46.4 °F 29.4 in SSW 6.3 mph 9.8 mph 92% 0 in
11:50 48.9 °F 46.4 °F 29.4 in SSW 10.3 mph 11 mph 91% 0 in
11:55 49.1 °F 48.2 °F 29.4 in SSW 6 mph 11 mph 91% 0 in
12:00 49.3 °F 48.2 °F 29.4 in SSW 7.8 mph 10.7 mph 91% 0 in
12:04 49.3 °F 48.2 °F 29.4 in SW 8.5 mph 10.7 mph 91% 0 in
12:09 49.3 °F 46.4 °F 29.4 in SW 7.4 mph 13 mph 90% 0 in
12:11 49.3 °F 46.4 °F 29.4 in SW 8.5 mph 13 mph 90% 0 in
12:16 49.5 °F 46.4 °F 29.4 in SW 8.7 mph 13 mph 90% 0 in
12:17 49.5 °F 46.4 °F 29.4 in SW 6 mph 13 mph 90% 0 in
12:22 49.6 °F 46.4 °F 29.4 in SSW 5.4 mph 11.9 mph 89% 0 in
12:27 49.8 °F 48.2 °F 29.4 in SSW 6.5 mph 11.9 mph 89% 0 in
12:28 49.8 °F 48.2 °F 29.4 in SSW 7.4 mph 11.9 mph 89% 0 in
12:33 49.8 °F 48.2 °F 29.4 in SSW 8.5 mph 11.4 mph 89% 0 in
12:38 49.8 °F 46.4 °F 29.4 in SSW 8.1 mph 13.2 mph 88% 0 in
12:43 49.8 °F 46.4 °F 29.4 in SW 7.8 mph 13.2 mph 88% 0 in
12:48 49.8 °F 46.4 °F 29.4 in SSW 10.5 mph 12.3 mph 88% 0 in
12:53 49.8 °F 46.4 °F 29.4 in WSW 15.2 mph 15.2 mph 87% 0 in
12:58 49.8 °F 46.4 °F 29.4 in SSW 5.8 mph 15.2 mph 87% 0 in
13:01 49.8 °F 46.4 °F 29.4 in SW 12.1 mph 15.2 mph 87% 0 in
13:07 49.8 °F 46.4 °F 29.4 in SW 11 mph 13.4 mph 87% 0 in
13:12 50 °F 46.4 °F 29.4 in SSW 7.4 mph 13.2 mph 87% 0 in
13:17 50 °F 46.4 °F 29.4 in SSW 10.7 mph 12.8 mph 86% 0 in
13:22 50 °F 46.4 °F 29.4 in WSW 10.5 mph 12.8 mph 86% 0 in
13:28 49.8 °F 46.4 °F 29.4 in WSW 7.6 mph 13.2 mph 86% 0 in
13:33 49.8 °F 46.4 °F 29.4 in SW 12.3 mph 12.3 mph 87% 0 in
13:38 49.8 °F 46.4 °F 29.4 in WSW 10.3 mph 13 mph 87% 0 in
13:39 49.8 °F 46.4 °F 29.4 in SSW 7.2 mph 13 mph 86% 0 in
13:44 50 °F 46.4 °F 29.4 in SW 7.8 mph 14.8 mph 86% 0 in
13:49 50 °F 46.4 °F 29.4 in SW 12.3 mph 14.8 mph 85% 0 in
13:54 50 °F 46.4 °F 29.4 in SW 10.1 mph 12.8 mph 85% 0 in
13:59 50 °F 46.4 °F 29.4 in SW 8.7 mph 12.8 mph 85% 0 in
14:04 50 °F 46.4 °F 29.4 in SW 8.5 mph 15.9 mph 84% 0 in
14:09 50 °F 46.4 °F 29.4 in WSW 8.1 mph 15.9 mph 84% 0 in
14:14 50 °F 46.4 °F 29.4 in WSW 8.5 mph 13.2 mph 84% 0 in
14:19 49.8 °F 46.4 °F 29.4 in WSW 11 mph 13.6 mph 84% 0 in
14:23 49.8 °F 46.4 °F 29.4 in SSW 12.3 mph 14.5 mph 85% 0 in
14:28 49.6 °F 46.4 °F 29.4 in SW 13 mph 15.2 mph 85% 0 in
14:33 49.3 °F 46.4 °F 29.4 in WSW 15.7 mph 19 mph 86% 0 in
14:38 49.1 °F 46.4 °F 29.4 in WSW 13 mph 23.7 mph 86% 0 in
14:42 48.9 °F 46.4 °F 29.4 in SW 13.2 mph 23.7 mph 87% 0 in
14:47 48.7 °F 46.4 °F 29.4 in WSW 10.1 mph 19.9 mph 88% 0 in
14:50 48.6 °F 46.4 °F 29.4 in WSW 9.8 mph 17.4 mph 88% 0 in
14:55 48.6 °F 46.4 °F 29.4 in WSW 10.7 mph 14.1 mph 89% 0 in
14:57 48.6 °F 46.4 °F 29.4 in SW 8.7 mph 14.1 mph 89% 0 in
15:02 48.6 °F 46.4 °F 29.4 in SW 9.8 mph 13.2 mph 90% 0 in
15:07 48.4 °F 46.4 °F 29.4 in WSW 9.6 mph 13.2 mph 90% 0 in
15:12 48.4 °F 46.4 °F 29.4 in SSW 7.6 mph 15.2 mph 90% 0 in
15:21 48.2 °F 46.4 °F 29.4 in SW 7.6 mph 14.8 mph 91% 0 in
15:24 48.2 °F 46.4 °F 29.4 in SW 9.6 mph 11 mph 91% 0 in
15:29 48.2 °F 46.4 °F 29.4 in WSW 8.5 mph 15.2 mph 91% 0 in
15:32 48.2 °F 46.4 °F 29.4 in WSW 9.6 mph 15.2 mph 91% 0 in
15:34 48.2 °F 46.4 °F 29.4 in WSW 10.7 mph 15.2 mph 91% 0 in
15:39 48.2 °F 46.4 °F 29.4 in SW 8.1 mph 16.6 mph 91% 0 in
15:44 48 °F 46.4 °F 29.4 in WSW 7.6 mph 16.6 mph 91% 0 in
15:50 48 °F 46.4 °F 29.4 in WSW 7.2 mph 14.8 mph 91% 0 in
15:54 48 °F 46.4 °F 29.4 in SW 7.6 mph 14.8 mph 90% 0 in
15:59 48 °F 46.4 °F 29.4 in WSW 8.1 mph 13.2 mph 90% 0 in
16:05 48 °F 46.4 °F 29.4 in SSW 10.5 mph 10.5 mph 90% 0 in
16:10 48 °F 46.4 °F 29.4 in WSW 7.8 mph 12.5 mph 90% 0 in
16:15 47.7 °F 44.6 °F 29.4 in SW 8.1 mph 12.5 mph 89% 0 in
16:20 47.3 °F 44.6 °F 29.4 in WSW 7.6 mph 10.5 mph 89% 0 in
16:25 47.1 °F 44.6 °F 29.4 in WSW 7.8 mph 10.7 mph 89% 0 in
16:30 46.9 °F 44.6 °F 29.4 in SW 7.6 mph 10.7 mph 89% 0 in
16:32 46.8 °F 44.6 °F 29.4 in SW 8.7 mph 10.7 mph 89% 0 in
16:38 46.6 °F 44.6 °F 29.4 in SW 6.5 mph 10.1 mph 90% 0 in
16:43 46.4 °F 44.6 °F 29.4 in SW 5.4 mph 12.8 mph 90% 0 in
16:48 46.2 °F 44.6 °F 29.4 in WSW 5.8 mph 12.8 mph 91% 0 in
16:51 46.2 °F 44.6 °F 29.4 in WSW 8.5 mph 9.2 mph 91% 0 in
16:53 46 °F 42.8 °F 29.4 in WSW 7.6 mph 9.2 mph 91% 0 in
16:58 46 °F 42.8 °F 29.4 in WSW 7.6 mph 9.6 mph 92% 0 in
17:03 46.2 °F 44.6 °F 29.4 in WSW 8.1 mph 10.5 mph 93% 0 in
17:08 46 °F 44.6 °F 29.4 in WSW 7.2 mph 10.5 mph 93% 0 in
17:10 46 °F 44.6 °F 29.4 in WSW 7.4 mph 10.1 mph 93% 0 in
17:14 46 °F 44.6 °F 29.4 in SW 6.3 mph 10.1 mph 93% 0 in
17:19 46 °F 44.6 °F 29.4 in WSW 7.4 mph 10.5 mph 93% 0 in
17:24 46.2 °F 44.6 °F 29.4 in WSW 7.8 mph 10.5 mph 93% 0 in
17:29 46.2 °F 44.6 °F 29.4 in West 7.2 mph 10.3 mph 93% 0.01 in
17:30 46.2 °F 44.6 °F 29.4 in West 6.5 mph 9.2 mph 93% 0.01 in
17:35 45.7 °F 44.6 °F 29.4 in WSW 10.5 mph 14.8 mph 93% 0.02 in
17:38 45.3 °F 42.8 °F 29.4 in WSW 10.3 mph 14.8 mph 92% 0.02 in
17:43 45 °F 42.8 °F 29.4 in WSW 13 mph 15.9 mph 92% 0.03 in
17:44 45 °F 42.8 °F 29.4 in WSW 11 mph 15.9 mph 92% 0.03 in
17:49 44.6 °F 42.8 °F 29.4 in WSW 11.2 mph 16.6 mph 93% 0.03 in
17:51 44.6 °F 42.8 °F 29.4 in West 12.3 mph 16.6 mph 93% 0.03 in
17:56 44.2 °F 42.8 °F 29.4 in WSW 12.8 mph 19.7 mph 95% 0.03 in
17:59 44.2 °F 42.8 °F 29.4 in WSW 10.1 mph 19.7 mph 95% 0.03 in
18:04 43.9 °F 42.8 °F 29.4 in WSW 7.4 mph 17 mph 95% 0.03 in
18:06 43.9 °F 42.8 °F 29.4 in WSW 7.4 mph 14.5 mph 95% 0.03 in
18:11 43.5 °F 42.8 °F 29.4 in WSW 10.1 mph 12.5 mph 95% 0.03 in
18:14 43.5 °F 42.8 °F 29.4 in WSW 7.8 mph 12.5 mph 95% 0.03 in
18:20 43.5 °F 42.8 °F 29.4 in WSW 7.6 mph 11.2 mph 95% 0.03 in
18:30 43.2 °F 42.8 °F 29.4 in WSW 5.6 mph 12.1 mph 95% 0.02 in
18:35 43.2 °F 42.8 °F 29.4 in WSW 11 mph 11 mph 95% 0.01 in
18:40 43.3 °F 42.8 °F 29.4 in WSW 10.7 mph 13.6 mph 96% 0 in
18:44 43.3 °F 42.8 °F 29.4 in WSW 10.7 mph 13.6 mph 96% 0 in
18:49 43.5 °F 42.8 °F 29.4 in WSW 9.8 mph 13.6 mph 96% 0 in
18:50 43.5 °F 42.8 °F 29.4 in SSW 7.8 mph 13 mph 96% 0 in
18:55 43.5 °F 42.8 °F 29.4 in WSW 13 mph 13 mph 96% 0 in
18:57 43.5 °F 42.8 °F 29.5 in WSW 10.1 mph 13 mph 96% 0 in
19:02 43.5 °F 42.8 °F 29.5 in WSW 10.3 mph 13 mph 96% 0 in
19:07 43.5 °F 42.8 °F 29.5 in SW 6.5 mph 12.1 mph 95% 0 in
19:12 43.5 °F 42.8 °F 29.5 in SW 7.8 mph 10.7 mph 95% 0 in
19:17 43.3 °F 42.8 °F 29.5 in SSW 7.6 mph 10.7 mph 95% 0 in
19:22 43.3 °F 42.8 °F 29.5 in SW 7.6 mph 9.4 mph 95% 0 in
19:27 43.3 °F 42.8 °F 29.5 in SW 7.8 mph 11.4 mph 95% 0 in
19:32 43.3 °F 42.8 °F 29.5 in WSW 8.5 mph 12.3 mph 94% 0 in
19:37 43.3 °F 42.8 °F 29.5 in SW 8.1 mph 12.3 mph 94% 0 in
19:42 43.5 °F 42.8 °F 29.5 in WSW 10.1 mph 13.2 mph 94% 0 in
19:43 43.5 °F 42.8 °F 29.5 in SW 10.1 mph 13.2 mph 94% 0 in
19:48 43.5 °F 42.8 °F 29.5 in SW 12.5 mph 13.2 mph 94% 0 in
19:58 43.5 °F 42.8 °F 29.5 in WSW 7.6 mph 12.8 mph 94% 0 in
20:03 43.7 °F 42.8 °F 29.5 in SW 6.5 mph 12.8 mph 94% 0.01 in
20:04 43.7 °F 42.8 °F 29.5 in SW 7.6 mph 12.8 mph 94% 0.01 in
20:09 43.7 °F 42.8 °F 29.5 in SW 10.5 mph 13.2 mph 94% 0.01 in
20:11 43.7 °F 42.8 °F 29.5 in SW 10.3 mph 13.2 mph 94% 0.01 in
20:16 43.7 °F 42.8 °F 29.5 in SSW 7.8 mph 13.2 mph 94% 0.01 in
20:20 43.7 °F 42.8 °F 29.5 in WSW 7.8 mph 13 mph 94% 0.01 in
20:26 43.7 °F 42.8 °F 29.5 in SW 11 mph 11 mph 94% 0.01 in
20:27 43.7 °F 42.8 °F 29.5 in SW 8.1 mph 11 mph 94% 0.01 in
20:32 43.5 °F 42.8 °F 29.5 in SW 6 mph 11 mph 94% 0.01 in
20:34 43.5 °F 42.8 °F 29.5 in SW 5.8 mph 11 mph 94% 0.01 in
20:36 43.7 °F 42.8 °F 29.5 in SSW 7.2 mph 10.3 mph 95% 0.01 in
20:41 43.7 °F 42.8 °F 29.5 in SSW 7.6 mph 10.5 mph 95% 0.01 in
20:42 43.7 °F 42.8 °F 29.5 in SW 9.8 mph 10.5 mph 95% 0.01 in
20:47 43.7 °F 42.8 °F 29.5 in SSW 7.8 mph 10.5 mph 95% 0.01 in
20:52 43.7 °F 42.8 °F 29.5 in WSW 7.8 mph 8.9 mph 95% 0.01 in
20:57 43.7 °F 42.8 °F 29.5 in SW 6.3 mph 10.5 mph 95% 0.01 in
21:02 43.7 °F 42.8 °F 29.5 in SW 9.2 mph 10.5 mph 96% 0 in
21:07 43.7 °F 42.8 °F 29.5 in SSW 7.8 mph 12.1 mph 96% 0 in
21:11 43.7 °F 42.8 °F 29.5 in WSW 7.4 mph 12.1 mph 96% 0 in
21:16 43.7 °F 42.8 °F 29.5 in SSW 6.5 mph 12.1 mph 96% 0 in
21:21 43.7 °F 42.8 °F 29.5 in SW 6 mph 10.5 mph 96% 0 in
21:25 43.5 °F 42.8 °F 29.5 in SW 6 mph 10.3 mph 96% 0 in
21:30 43.5 °F 42.8 °F 29.5 in SSW 7.8 mph 10.1 mph 96% 0 in
21:31 43.3 °F 42.8 °F 29.5 in SSW 4.9 mph 9.6 mph 96% 0 in
21:35 43.3 °F 42.8 °F 29.5 in SSW 6.3 mph 9.6 mph 96% 0 in
21:40 43.2 °F 42.8 °F 29.5 in SW 6 mph 8.1 mph 96% 0 in
21:43 43 °F 42.8 °F 29.5 in Calm   8.1 mph 96% 0 in
21:48 43 °F 42.8 °F 29.5 in SW 4.9 mph 8.1 mph 96% 0 in
21:51 43 °F 42.8 °F 29.5 in SSW 4.7 mph 8.5 mph 96% 0 in
21:58 43 °F 42.8 °F 29.5 in SSW 5.4 mph 8.7 mph 97% 0 in
22:03 43 °F 42.8 °F 29.5 in SW 6.3 mph 8.7 mph 97% 0 in
22:08 43.3 °F 42.8 °F 29.5 in SW 7.4 mph 10.5 mph 97% 0 in
22:13 43.3 °F 42.8 °F 29.5 in SW 5.8 mph 10.5 mph 97% 0 in
22:18 43.3 °F 42.8 °F 29.5 in SW 5.8 mph 8.5 mph 97% 0 in
22:21 43.5 °F 42.8 °F 29.5 in SW 7.6 mph 8.5 mph 97% 0 in
22:26 43.5 °F 42.8 °F 29.5 in SSW 7.8 mph 7.8 mph 97% 0 in
22:30 43.5 °F 42.8 °F 29.5 in WSW 5.6 mph 11.2 mph 97% 0 in
22:35 43.5 °F 42.8 °F 29.5 in SSW 7.4 mph 11.2 mph 97% 0 in
22:36 43.5 °F 42.8 °F 29.5 in SSW 6 mph 11.2 mph 97% 0 in
22:41 43.5 °F 42.8 °F 29.6 in SW 6 mph 9.6 mph 97% 0 in
22:46 43.5 °F 42.8 °F 29.6 in WSW 6.3 mph 8.7 mph 97% 0 in
22:49 43.5 °F 42.8 °F 29.6 in SW 4 mph 8.7 mph 97% 0 in
22:54 43.5 °F 42.8 °F 29.6 in SW 6 mph 7.8 mph 96% 0 in
22:56 43.5 °F 42.8 °F 29.5 in SW 6.5 mph 7.8 mph 96% 0 in
23:06 43.5 °F 42.8 °F 29.5 in SW 5.6 mph 8.5 mph 96% 0 in
23:09 43.5 °F 42.8 °F 29.5 in WSW 5.4 mph 8.5 mph 96% 0 in
23:14 43.5 °F 42.8 °F 29.6 in SSW 7.8 mph 8.7 mph 96% 0 in
23:17 43.5 °F 42.8 °F 29.6 in SW 6.5 mph 8.7 mph 96% 0 in
23:22 43.3 °F 42.8 °F 29.6 in SSW 6.5 mph 8.7 mph 96% 0 in
23:23 43.3 °F 42.8 °F 29.6 in WSW 5.8 mph 8.7 mph 96% 0 in
23:28 43.3 °F 42.8 °F 29.6 in West 3.8 mph 9.6 mph 95% 0 in
23:33 43.2 °F 42.8 °F 29.6 in SSW 4 mph 9.6 mph 95% 0 in
23:34 43 °F 42.8 °F 29.6 in SSW 3.6 mph 9.6 mph 95% 0 in
23:35 43 °F 42.8 °F 29.6 in South 4.3 mph 6.3 mph 95% 0 in
23:40 42.8 °F 42.8 °F 29.6 in WSW 5.8 mph 8.5 mph 95% 0 in
23:46 42.6 °F 42.8 °F 29.6 in Calm   8.5 mph 95% 0 in
23:48 42.6 °F 42.8 °F 29.6 in SSW 6 mph 8.5 mph 95% 0 in
23:53 42.4 °F 42.8 °F 29.6 in South 4.9 mph 6.3 mph 95% 0 in
23:58 42.4 °F 42.8 °F 29.6 in SSW 5.6 mph 6.3 mph 95% 0 in
Données Historique de Météo Turbie

Mise a jour : 21/05/2018 16:34:12
Généré par Cumulus 1.9.4 (1099)